| time (UTC) | temp F | wind direction | speed MPH | gust MPH | rain 1hr in | rain 24hr in | rain mn in | humidity % | barometer mb |
| 20260504044003 | 57 | 16 | 0.0 | 0.0 | 0.00 | 0.02 | 0.00 | 55 | 1014.7 |
| 20260504043504 | 57 | 15 | 0.0 | 0.0 | 0.00 | 0.02 | 0.00 | 54 | 1014.6 |
| 20260504043004 | 58 | 16 | 0.0 | 0.0 | 0.00 | 0.02 | 0.00 | 54 | 1014.6 |
| 20260504042004 | 59 | 17 | 0.0 | 0.0 | 0.00 | 0.02 | 0.00 | 54 | 1014.7 |
| 20260504041003 | 59 | 18 | 0.0 | 2.0 | 0.00 | 0.02 | 0.00 | 51 | 1014.7 |
| 20260504040503 | 59 | 23 | 0.0 | 3.0 | 0.00 | 0.02 | 0.00 | 51 | 1014.8 |
| 20260504040004 | 58 | 17 | 0.0 | 1.0 | 0.00 | 0.02 | 0.00 | 51 | 1014.8 |
| 20260504035504 | 58 | 16 | 0.0 | 0.0 | 0.00 | 0.02 | 0.02 | 54 | 1014.8 |
| 20260504035004 | 58 | 17 | 0.0 | 1.0 | 0.00 | 0.02 | 0.02 | 52 | 1014.8 |
| 20260504034504 | 58 | 15 | 1.0 | 2.0 | 0.00 | 0.02 | 0.02 | 52 | 1014.7 |
| 20260504033004 | 57 | 18 | 0.0 | 1.0 | 0.00 | 0.02 | 0.02 | 55 | 1014.8 |
| 20260504032504 | 57 | 22 | 0.0 | 2.0 | 0.00 | 0.02 | 0.02 | 55 | 1014.9 |
| 20260504032004 | 57 | 1 | 0.0 | 0.0 | 0.00 | 0.02 | 0.02 | 52 | 1014.8 |
| 20260504031003 | 57 | 2 | 0.0 | 2.0 | 0.00 | 0.02 | 0.02 | 53 | 1014.7 |
| 20260504030004 | 57 | 1 | 0.0 | 0.0 | 0.00 | 0.02 | 0.02 | 52 | 1014.8 |
| 20260504025503 | 58 | 1 | 0.0 | 0.0 | 0.00 | 0.02 | 0.02 | 52 | 1014.8 |
| 20260504025005 | 58 | 1 | 0.0 | 0.0 | 0.00 | 0.02 | 0.02 | 53 | 1014.8 |
| 20260504024003 | 58 | 1 | 0.0 | 0.0 | 0.00 | 0.02 | 0.02 | 52 | 1014.8 |
| 20260504023505 | 58 | 1 | 0.0 | 0.0 | 0.00 | 0.02 | 0.02 | 52 | 1014.7 |
| 20260504023004 | 58 | 1 | 0.0 | 0.0 | 0.00 | 0.02 | 0.02 | 51 | 1014.7 |
| 20260504022004 | 59 | 1 | 0.0 | 0.0 | 0.00 | 0.02 | 0.02 | 50 | 1014.6 |
| 20260504021503 | 59 | 1 | 0.0 | 0.0 | 0.00 | 0.02 | 0.02 | 50 | 1014.6 |
| 20260504021004 | 59 | 1 | 0.0 | 0.0 | 0.00 | 0.02 | 0.02 | 50 | 1014.5 |
| 20260504020004 | 59 | 1 | 0.0 | 0.0 | 0.00 | 0.02 | 0.02 | 50 | 1014.3 |
| 20260504015504 | 59 | 1 | 0.0 | 0.0 | 0.00 | 0.02 | 0.02 | 49 | 1014.3 |
| 20260504015003 | 59 | 1 | 0.0 | 0.0 | 0.00 | 0.02 | 0.02 | 49 | 1014.3 |
| 20260504014504 | 59 | 1 | 0.0 | 0.0 | 0.00 | 0.02 | 0.02 | 49 | 1014.2 |
| 20260504014003 | 59 | 1 | 0.0 | 0.0 | 0.00 | 0.02 | 0.02 | 50 | 1014.1 |
| 20260504013504 | 60 | 1 | 0.0 | 0.0 | 0.00 | 0.02 | 0.02 | 50 | 1014.1 |
| 20260504012504 | 60 | 1 | 0.0 | 0.0 | 0.00 | 0.02 | 0.02 | 50 | 1014.0 |
| 20260504012004 | 60 | 1 | 0.0 | 0.0 | 0.00 | 0.02 | 0.02 | 50 | 1014.0 |
| 20260504011504 | 61 | 1 | 0.0 | 0.0 | 0.00 | 0.02 | 0.02 | 49 | 1013.9 |
| 20260504011004 | 61 | 1 | 0.0 | 0.0 | 0.00 | 0.02 | 0.02 | 49 | 1013.9 |
| 20260504010503 | 61 | 1 | 0.0 | 0.0 | 0.00 | 0.02 | 0.02 | 48 | 1013.9 |
| 20260504010004 | 62 | 1 | 0.0 | 0.0 | 0.00 | 0.02 | 0.02 | 48 | 1014.0 |
| 20260504005004 | 62 | 3 | 0.0 | 0.0 | 0.00 | 0.02 | 0.02 | 47 | 1013.9 |
| 20260504004004 | 63 | 3 | 0.0 | 0.0 | 0.00 | 0.02 | 0.02 | 46 | 1013.7 |
| 20260504002504 | 65 | 7 | 0.0 | 0.0 | 0.00 | 0.02 | 0.02 | 42 | 1013.6 |
| 20260504002004 | 65 | 21 | 0.0 | 0.0 | 0.00 | 0.02 | 0.02 | 41 | 1013.5 |
| 20260504001504 | 66 | 21 | 0.0 | 0.0 | 0.00 | 0.02 | 0.02 | 41 | 1013.5 |
| 20260504000503 | 67 | 19 | 0.0 | 0.0 | 0.00 | 0.02 | 0.02 | 39 | 1013.4 |
| 20260504000004 | 68 | 21 | 0.0 | 0.0 | 0.00 | 0.02 | 0.02 | 37 | 1013.4 |
| 20260503235504 | 68 | 18 | 0.0 | 0.0 | 0.00 | 0.02 | 0.02 | 37 | 1013.4 |
| 20260503235004 | 69 | 16 | 0.0 | 0.0 | 0.00 | 0.02 | 0.02 | 36 | 1013.3 |
| 20260503234003 | 69 | 17 | 0.0 | 1.0 | 0.00 | 0.02 | 0.02 | 35 | 1013.3 |
| 20260503233504 | 70 | 267 | 0.0 | 0.0 | 0.00 | 0.02 | 0.02 | 36 | 1013.3 |
| 20260503233003 | 70 | 265 | 0.0 | 0.0 | 0.00 | 0.02 | 0.02 | 33 | 1013.4 |
| 20260503232504 | 70 | 240 | 0.0 | 0.0 | 0.00 | 0.03 | 0.02 | 35 | 1013.3 |
| 20260503232003 | 70 | 178 | 0.0 | 0.0 | 0.00 | 0.03 | 0.02 | 34 | 1013.4 |
| 20260503231503 | 71 | 191 | 0.0 | 1.0 | 0.00 | 0.03 | 0.02 | 34 | 1013.4 |
| 20260503231003 | 71 | 207 | 1.0 | 2.0 | 0.00 | 0.04 | 0.02 | 31 | 1013.5 |
| 20260503230504 | 71 | 329 | 0.0 | 0.0 | 0.00 | 0.04 | 0.02 | 32 | 1013.5 |
| 20260503230004 | 72 | 221 | 0.0 | 3.0 | 0.00 | 0.05 | 0.02 | 31 | 1013.5 |
| 20260503225504 | 72 | 202 | 0.0 | 3.0 | 0.00 | 0.05 | 0.02 | 30 | 1013.6 |
| 20260503225004 | 73 | 221 | 0.0 | 0.0 | 0.00 | 0.06 | 0.02 | 28 | 1013.6 |
| 20260503224504 | 72 | 281 | 0.0 | 1.0 | 0.00 | 0.06 | 0.02 | 30 | 1013.6 |
| 20260503224003 | 72 | 36 | 0.0 | 1.0 | 0.00 | 0.06 | 0.02 | 32 | 1013.6 |
| 20260503223504 | 71 | 345 | 0.0 | 2.0 | 0.00 | 0.06 | 0.02 | 32 | 1013.6 |
| 20260503223003 | 71 | 177 | 0.0 | 6.0 | 0.00 | 0.06 | 0.02 | 28 | 1013.7 |
| 20260503222504 | 72 | 161 | 1.0 | 5.0 | 0.00 | 0.06 | 0.02 | 29 | 1013.6 |
| 20260503222003 | 72 | 169 | 0.0 | 3.0 | 0.00 | 0.06 | 0.02 | 31 | 1013.7 |
| 20260503221504 | 72 | 195 | 0.0 | 1.0 | 0.00 | 0.06 | 0.02 | 30 | 1013.7 |
| 20260503221003 | 72 | 286 | 0.0 | 0.0 | 0.00 | 0.06 | 0.02 | 29 | 1013.7 |
| 20260503220503 | 72 | 39 | 0.0 | 0.0 | 0.00 | 0.06 | 0.02 | 33 | 1013.8 |
| 20260503220004 | 72 | 14 | 0.0 | 0.0 | 0.00 | 0.06 | 0.02 | 31 | 1013.8 |
| 20260503215504 | 71 | 147 | 0.0 | 1.0 | 0.00 | 0.06 | 0.02 | 29 | 1013.9 |
| 20260503215004 | 71 | 103 | 1.0 | 7.0 | 0.00 | 0.06 | 0.02 | 32 | 1013.8 |
| 20260503214504 | 70 | 195 | 0.0 | 6.0 | 0.00 | 0.06 | 0.02 | 30 | 1013.9 |
| 20260503213503 | 71 | 209 | 1.0 | 7.0 | 0.00 | 0.06 | 0.02 | 33 | 1013.9 |
| 20260503213004 | 71 | 194 | 0.0 | 2.0 | 0.00 | 0.06 | 0.02 | 31 | 1014.0 |
| 20260503212504 | 71 | 186 | 2.0 | 6.0 | 0.00 | 0.06 | 0.02 | 32 | 1014.1 |
| 20260503212004 | 71 | 182 | 3.0 | 7.0 | 0.00 | 0.06 | 0.02 | 29 | 1014.1 |
| 20260503211003 | 72 | 182 | 2.0 | 6.0 | 0.00 | 0.06 | 0.02 | 29 | 1014.2 |
| 20260503210503 | 72 | 165 | 0.0 | 3.0 | 0.00 | 0.06 | 0.02 | 35 | 1014.2 |
| 20260503210005 | 71 | 198 | 0.0 | 3.0 | 0.00 | 0.06 | 0.02 | 36 | 1014.2 |
| 20260503205504 | 71 | 211 | 1.0 | 5.0 | 0.00 | 0.06 | 0.02 | 34 | 1014.4 |
| 20260503204004 | 70 | 214 | 4.0 | 8.0 | 0.00 | 0.06 | 0.02 | 30 | 1014.6 |
| 20260503203504 | 70 | 176 | 1.0 | 3.0 | 0.00 | 0.06 | 0.02 | 33 | 1014.7 |
| 20260503203004 | 69 | 240 | 0.0 | 5.0 | 0.00 | 0.06 | 0.02 | 35 | 1014.7 |
| 20260503202504 | 70 | 161 | 2.0 | 7.0 | 0.00 | 0.06 | 0.02 | 33 | 1014.8 |
| 20260503202003 | 70 | 160 | 0.0 | 1.0 | 0.00 | 0.06 | 0.02 | 36 | 1015.0 |
| 20260503201504 | 69 | 205 | 0.0 | 6.0 | 0.00 | 0.06 | 0.02 | 40 | 1015.1 |
| 20260503201003 | 69 | 200 | 1.0 | 5.0 | 0.00 | 0.06 | 0.02 | 40 | 1015.2 |
| 20260503200504 | 69 | 219 | 1.0 | 6.0 | 0.00 | 0.06 | 0.02 | 38 | 1015.3 |
| 20260503200003 | 68 | 189 | 0.0 | 0.0 | 0.00 | 0.06 | 0.02 | 39 | 1015.5 |
| 20260503195504 | 67 | 165 | 0.0 | 6.0 | 0.00 | 0.06 | 0.02 | 40 | 1015.6 |
| 20260503194004 | 67 | 288 | 1.0 | 6.0 | 0.00 | 0.06 | 0.02 | 42 | 1015.9 |
| 20260503193004 | 67 | 239 | 3.0 | 10.0 | 0.00 | 0.06 | 0.02 | 36 | 1016.1 |
| 20260503192504 | 67 | 205 | 2.0 | 7.0 | 0.00 | 0.06 | 0.02 | 39 | 1016.2 |
| 20260503192004 | 67 | 218 | 2.0 | 7.0 | 0.00 | 0.06 | 0.02 | 41 | 1016.3 |
| 20260503191504 | 67 | 157 | 2.0 | 7.0 | 0.00 | 0.06 | 0.02 | 40 | 1016.5 |
| 20260503190504 | 66 | 194 | 4.0 | 8.0 | 0.00 | 0.06 | 0.02 | 42 | 1016.6 |
| 20260503190004 | 66 | 117 | 1.0 | 9.0 | 0.00 | 0.06 | 0.02 | 42 | 1016.6 |
| 20260503185004 | 66 | 94 | 1.0 | 3.0 | 0.00 | 0.06 | 0.02 | 42 | 1016.8 |
| 20260503184503 | 65 | 189 | 1.0 | 7.0 | 0.00 | 0.06 | 0.02 | 40 | 1016.8 |
| 20260503183503 | 65 | 236 | 0.0 | 6.0 | 0.00 | 0.06 | 0.02 | 43 | 1017.0 |
| 20260503183004 | 64 | 195 | 5.0 | 8.0 | 0.00 | 0.06 | 0.02 | 39 | 1017.0 |
| 20260503182503 | 64 | 190 | 2.0 | 7.0 | 0.00 | 0.06 | 0.02 | 41 | 1017.0 |
| 20260503182005 | 64 | 232 | 5.0 | 10.0 | 0.00 | 0.06 | 0.02 | 40 | 1017.1 |
| 20260503181504 | 64 | 224 | 3.0 | 6.0 | 0.00 | 0.06 | 0.02 | 39 | 1017.1 |
| 20260503181004 | 64 | 189 | 3.0 | 6.0 | 0.00 | 0.06 | 0.02 | 39 | 1017.1 |
| 20260503180504 | 64 | 197 | 2.0 | 6.0 | 0.00 | 0.06 | 0.02 | 41 | 1017.1 |
| 20260503180003 | 64 | 239 | 1.0 | 6.0 | 0.00 | 0.06 | 0.02 | 42 | 1017.1 |
| 20260503175004 | 64 | 151 | 0.0 | 6.0 | 0.00 | 0.06 | 0.02 | 37 | 1017.1 |
| 20260503174503 | 64 | 185 | 0.0 | 2.0 | 0.00 | 0.06 | 0.02 | 42 | 1017.2 |
| 20260503174004 | 64 | 225 | 3.0 | 7.0 | 0.00 | 0.06 | 0.02 | 38 | 1017.4 |
| 20260503173504 | 64 | 196 | 2.0 | 7.0 | 0.00 | 0.06 | 0.02 | 41 | 1017.3 |
| 20260503173003 | 64 | 247 | 4.0 | 8.0 | 0.00 | 0.06 | 0.02 | 41 | 1017.3 |
| 20260503172504 | 63 | 217 | 1.0 | 7.0 | 0.00 | 0.06 | 0.02 | 43 | 1017.3 |
| 20260503172004 | 63 | 156 | 2.0 | 10.0 | 0.00 | 0.06 | 0.02 | 43 | 1017.4 |
| 20260503171504 | 63 | 302 | 0.0 | 5.0 | 0.00 | 0.06 | 0.02 | 48 | 1017.4 |
| 20260503171003 | 62 | 204 | 2.0 | 7.0 | 0.00 | 0.06 | 0.02 | 45 | 1017.6 |
| 20260503170503 | 62 | 217 | 2.0 | 7.0 | 0.00 | 0.06 | 0.02 | 44 | 1017.8 |
| 20260503150503 | 56 | 172 | 0.0 | 0.0 | 0.01 | 0.06 | 0.02 | 67 | 1018.8 |
| 20260503131003 | 49 | 35 | 0.0 | 0.0 | 0.00 | 0.05 | 0.01 | 100 | 1018.3 |
| 20260503090503 | 45 | 253 | 0.0 | 0.0 | 0.00 | 0.05 | 0.01 | 100 | 1015.8 |
| 20260503081503 | 45 | 254 | 0.0 | 0.0 | 0.00 | 0.05 | 0.01 | 99 | 1015.1 |
| 20260503081004 | 45 | 254 | 0.0 | 0.0 | 0.00 | 0.05 | 0.01 | 99 | 1015.1 |
| 20260503080503 | 45 | 254 | 0.0 | 0.0 | 0.00 | 0.05 | 0.01 | 99 | 1015.0 |
| 20260503072004 | 46 | 254 | 0.0 | 0.0 | 0.00 | 0.05 | 0.01 | 99 | 1014.8 |
| 20260503071004 | 46 | 254 | 0.0 | 0.0 | 0.00 | 0.05 | 0.01 | 99 | 1014.7 |
| 20260503070504 | 46 | 254 | 0.0 | 0.0 | 0.00 | 0.05 | 0.01 | 99 | 1014.6 |
| 20260503055003 | 47 | 254 | 0.0 | 0.0 | 0.00 | 0.04 | 0.00 | 98 | 1014.3 |
| 20260503054504 | 47 | 254 | 0.0 | 0.0 | 0.00 | 0.04 | 0.00 | 98 | 1014.3 |
| 20260503054004 | 48 | 44 | 0.0 | 0.0 | 0.00 | 0.04 | 0.00 | 98 | 1014.3 |
| 20260503053503 | 48 | 38 | 0.0 | 0.0 | 0.00 | 0.04 | 0.00 | 98 | 1014.3 |
| 20260503053004 | 48 | 37 | 0.0 | 0.0 | 0.00 | 0.04 | 0.00 | 98 | 1014.3 |
| 20260503052503 | 48 | 36 | 0.0 | 0.0 | 0.00 | 0.04 | 0.00 | 98 | 1014.3 |
| 20260503052004 | 48 | 36 | 0.0 | 0.0 | 0.00 | 0.04 | 0.00 | 98 | 1014.3 |
| 20260503051503 | 48 | 33 | 0.0 | 0.0 | 0.00 | 0.04 | 0.00 | 98 | 1014.3 |
| 20260503051004 | 49 | 31 | 0.0 | 0.0 | 0.00 | 0.04 | 0.00 | 98 | 1014.2 |
| 20260503050504 | 49 | 28 | 0.0 | 0.0 | 0.00 | 0.04 | 0.00 | 98 | 1014.2 |
| 20260503050004 | 49 | 27 | 0.0 | 0.0 | 0.00 | 0.04 | 0.00 | 98 | 1014.4 |
| 20260503045004 | 49 | 25 | 0.0 | 0.0 | 0.00 | 0.04 | 0.00 | 98 | 1014.3 |
| 20260503044503 | 49 | 25 | 0.0 | 0.0 | 0.00 | 0.04 | 0.00 | 98 | 1014.3 |